Location: Dannhausen
(51.8650°N, 10.1026°E)
Time: 16:53:33
(UTC+00:00)

Helios 1B rocket - Pass Details

Date: 09 April 2020
Orbit: 574 x 584 km, 98.1° (Epoch: 24 May)

Event Time Altitude Azimuth Distance (km) Brightness Sun altitude
Rises 23:18:00 0° 18° (NNE) 2,807 7.0 -30.1°
Reaches altitude 10° 23:20:14 10° 25° (NNE) 1,901 5.8 -30.1°
Enters shadow 23:22:13 26° 39° (NE) 1,162 4.3 -30.1°
